Weather History for PAPO - January, 2014

Change the Weather History Date:

Wednesday, January 1, 2014

  Actual Average Record
Temperature  
Mean Temperature 0 °F -  
Max Temperature 8 °F 3 °F 33 °F (2005)
Min Temperature -7 °F -3 °F -27 °F (2012)
Degree Days  
Heating Degree Days 64    
Moisture  
Dew Point -2 °F    
Average Humidity 83    
Maximum Humidity 100    
Minimum Humidity 60    
Precipitation  
Precipitation 0.00 in - - ()
Sea Level Pressure  
Sea Level Pressure 29.50 in    
Wind  
Wind Speed 8 mph (NE)    
Max Wind Speed 14 mph    
Max Gust Speed -    
Visibility 10 miles    
Events      
Averages and records for this station are not official NWS values.
T = Trace of Precipitation, MM = Missing Value Source: NWS Daily Summary

Daily Weather History Graph

Daily Weather History Graph

Search for Another Location

Airport or City:

Trip Planner

Search our weather history database for the weather conditions in past years. The results will help you decide how hot, cold, wet, or windy it might be!

Date:

Astronomy

Jan. 01, 2014 Rise Set
Actual Time 1:38 PM AKST 2:43 PM AKST
Civil Twilight 11:28 AM AKST 4:53 PM AKST
Nautical Twilight 9:59 AM AKST 6:23 PM AKST
Astronomical Twilight 8:47 AM AKST 7:35 PM AKST
Moon 12:09 PM AKST (1/1) 5:20 PM AKST (1/1)
Length of Visible Light 5h 25m
Length of Day
1h 04m
New Moon, 0% of the Moon is Illuminated
Jan 1
New Moon
Jan 7
First Quarter
Jan 15
Full
Jan 23
Last Quarter
Jan 30
New

Hourly Weather History & Observations

Time (AKST) Temp. Windchill Dew Point Humidity Pressure Visibility Wind Dir Wind Speed Gust Speed Precip Events Conditions
12:16 AM -4.0 °F -16.3 °F -9.4 °F 78% 29.66 in 10.0 mi NE 5.8 mph - N/A   Clear
12:36 AM 1.4 °F -8.3 °F -4.0 °F 78% 29.65 in 10.0 mi NNE 4.6 mph - N/A   Clear
12:56 AM 8.6 °F -2.6 °F 5.0 °F 85% 29.64 in 10.0 mi NNE 6.9 mph - N/A   Clear
1:16 AM 8.6 °F -1.3 °F 5.0 °F 85% 29.64 in 10.0 mi NNE 5.8 mph - N/A   Clear
1:36 AM 8.6 °F -2.6 °F 5.0 °F 85% 29.63 in 10.0 mi NNE 6.9 mph - N/A   Clear
1:56 AM 6.8 °F -5.9 °F 1.4 °F 79% 29.62 in 10.0 mi North 8.1 mph - N/A   Clear
2:16 AM 6.8 °F -5.9 °F 1.4 °F 79% 29.62 in 10.0 mi North 8.1 mph - N/A   Clear
2:36 AM 3.2 °F -9.1 °F 3.2 °F 100% 29.61 in 10.0 mi NNE 6.9 mph - N/A   Clear
2:56 AM -5.8 °F -19.9 °F -16.6 °F 60% 29.60 in 10.0 mi NE 6.9 mph - N/A   Clear
3:16 AM -2.2 °F -15.6 °F -7.6 °F 78% 29.59 in 10.0 mi NNE 6.9 mph - N/A   Clear
3:36 AM -0.4 °F -16.7 °F -0.4 °F 100% 29.58 in 10.0 mi NE 10.4 mph - N/A   Clear
3:56 AM -7.6 °F -27.5 °F -16.6 °F 65% 29.58 in 10.0 mi NE 12.7 mph - N/A   Clear
4:16 AM -5.8 °F -24.4 °F -9.4 °F 84% 29.57 in 10.0 mi NE 11.5 mph - N/A   Clear
4:36 AM -7.6 °F -26.6 °F -14.8 °F 71% 29.57 in 10.0 mi NE 11.5 mph - N/A   Clear
4:56 AM -4.0 °F -20.2 °F -4.0 °F 100% 29.57 in 10.0 mi ENE 9.2 mph - N/A   Clear
5:16 AM -0.4 °F -10.4 °F -2.2 °F 92% 29.56 in 10.0 mi ENE 4.6 mph - N/A   Clear
5:36 AM -0.4 °F -8.3 °F -5.8 °F 78% 29.55 in 10.0 mi NE 3.5 mph - N/A   Clear
5:56 AM -2.2 °F -14.2 °F -7.6 °F 78% 29.55 in 10.0 mi East 5.8 mph - N/A   Clear
6:16 AM -2.2 °F -14.2 °F -5.8 °F 85% 29.54 in 10.0 mi ENE 5.8 mph - N/A   Clear
6:36 AM -2.2 °F -14.2 °F -7.6 °F 78% 29.53 in 10.0 mi NE 5.8 mph - N/A   Clear
6:56 AM -0.4 °F -12.0 °F -2.2 °F 92% 29.52 in 10.0 mi NNE 5.8 mph - N/A   Clear
7:16 AM 1.4 °F -13.5 °F -2.2 °F 85% 29.52 in 10.0 mi North 9.2 mph - N/A   Clear
7:36 AM 3.2 °F -11.3 °F -2.2 °F 78% 29.51 in 10.0 mi North 9.2 mph - N/A   Clear
7:56 AM 6.8 °F -9.3 °F 3.2 °F 85% 29.50 in 10.0 mi North 12.7 mph - N/A   Clear
8:16 AM 8.6 °F -7.0 °F 5.0 °F 85% 29.50 in 10.0 mi North 12.7 mph - N/A   Clear
8:36 AM 8.6 °F -6.3 °F 5.0 °F 85% 29.49 in 10.0 mi North 11.5 mph - N/A   Clear
8:56 AM 8.6 °F -7.7 °F 6.8 °F 92% 29.48 in 10.0 mi North 13.8 mph - N/A   Clear
9:16 AM 8.6 °F -6.3 °F 6.8 °F 92% 29.48 in 10.0 mi North 11.5 mph - N/A   Clear
9:36 AM 8.6 °F -7.7 °F 5.0 °F 85% 29.48 in 10.0 mi North 13.8 mph - N/A   Clear
9:56 AM 8.6 °F -6.3 °F 5.0 °F 85% 29.47 in 10.0 mi North 11.5 mph - N/A   Clear
10:16 AM 6.8 °F -8.6 °F 3.2 °F 85% 29.47 in 10.0 mi North 11.5 mph - N/A   Clear
10:36 AM 8.6 °F -5.5 °F 5.0 °F 85% 29.47 in 10.0 mi North 10.4 mph - N/A   Clear
10:56 AM 8.6 °F -6.3 °F 5.0 °F 85% 29.46 in 10.0 mi NNW 11.5 mph - N/A   Clear
11:16 AM 8.6 °F -7.0 °F 5.0 °F 85% 29.46 in 10.0 mi North 12.7 mph - N/A   Clear
11:36 AM 6.8 °F -8.6 °F 3.2 °F 85% 29.46 in 10.0 mi North 11.5 mph - N/A   Clear
11:56 AM 8.6 °F -5.5 °F 3.2 °F 79% 29.45 in 10.0 mi North 10.4 mph - N/A   Clear
12:16 PM 8.6 °F -7.0 °F 3.2 °F 79% 29.45 in 10.0 mi North 12.7 mph - N/A   Clear
12:36 PM 8.6 °F -5.5 °F 5.0 °F 85% 29.45 in 10.0 mi North 10.4 mph - N/A   Clear
12:56 PM 6.8 °F -4.8 °F 3.2 °F 85% 29.44 in 10.0 mi North 6.9 mph - N/A   Clear
1:16 PM 5.0 °F -8.1 °F 1.4 °F 85% 29.44 in 10.0 mi NNW 8.1 mph - N/A   Clear
1:36 PM 1.4 °F -12.5 °F -0.4 °F 92% 29.44 in 0.8 mi NE 8.1 mph - N/A   Unknown
1:56 PM 1.4 °F -14.5 °F -2.2 °F 85% 29.44 in 5.0 mi NNE 10.4 mph - N/A   Clear
2:16 PM 1.4 °F -15.3 °F -2.2 °F 85% 29.44 in 10.0 mi NNE 11.5 mph - N/A   Clear
2:36 PM -0.4 °F -16.7 °F -5.8 °F 78% 29.44 in 10.0 mi NNE 10.4 mph - N/A   Clear
2:56 PM 1.4 °F -13.5 °F -2.2 °F 85% 29.43 in 10.0 mi North 9.2 mph - N/A   Clear
3:16 PM 5.0 °F -8.1 °F 3.2 °F 92% 29.43 in 10.0 mi North 8.1 mph - N/A   Clear
3:36 PM 6.8 °F -5.9 °F 3.2 °F 85% 29.43 in 10.0 mi NNW 8.1 mph - N/A   Clear
3:56 PM 1.4 °F -9.9 °F -4.0 °F 78% 29.43 in 10.0 mi NE 5.8 mph - N/A   Clear
4:16 PM -0.4 °F -10.4 °F -2.2 °F 92% 29.43 in 10.0 mi North 4.6 mph - N/A   Clear
4:36 PM 1.4 °F - -2.2 °F 85% 29.43 in 10.0 mi Calm Calm - N/A   Clear
4:56 PM 1.4 °F -11.3 °F -4.0 °F 78% 29.44 in 10.0 mi East 6.9 mph - N/A   Clear
5:16 PM -2.2 °F -14.2 °F -9.4 °F 71% 29.44 in 10.0 mi East 5.8 mph - N/A   Clear
5:56 PM 1.4 °F - -7.6 °F 66% 29.45 in 10.0 mi Calm Calm - N/A   Clear
6:16 PM 3.2 °F - -0.4 °F 85% 29.45 in 10.0 mi Calm Calm - N/A   Clear
6:36 PM -0.4 °F -8.3 °F -11.2 °F 60% 29.45 in 10.0 mi North 3.5 mph - N/A   Clear
6:56 PM -0.4 °F -8.3 °F -9.4 °F 66% 29.45 in 10.0 mi North 3.5 mph - N/A   Clear
7:16 PM -5.8 °F -18.4 °F -9.4 °F 84% 29.45 in 10.0 mi ENE 5.8 mph - N/A   Clear
7:36 PM -5.8 °F -18.4 °F -16.6 °F 60% 29.46 in 10.0 mi ESE 5.8 mph - N/A   Clear
7:56 PM -2.2 °F -10.4 °F -5.8 °F 85% 29.46 in 10.0 mi SE 3.5 mph - N/A   Clear
8:16 PM -0.4 °F -12.0 °F -5.8 °F 78% 29.46 in 10.0 mi SE 5.8 mph - N/A   Clear
8:36 PM -0.4 °F -12.0 °F -4.0 °F 85% 29.46 in 10.0 mi SE 5.8 mph - N/A   Clear
8:56 PM -0.4 °F -13.4 °F -5.8 °F 78% 29.47 in 10.0 mi East 6.9 mph - N/A   Clear
9:16 PM -4.0 °F -21.2 °F -9.4 °F 78% 29.48 in 10.0 mi SE 10.4 mph - N/A   Clear
9:36 PM 1.4 °F -15.3 °F 1.4 °F 100% 29.48 in 10.0 mi SSE 11.5 mph - N/A   Clear
9:56 PM 3.2 °F -13.1 °F -0.4 °F 85% 29.49 in 10.0 mi South 11.5 mph - N/A   Clear
10:16 PM 3.2 °F -12.2 °F -0.4 °F 85% 29.49 in 10.0 mi South 10.4 mph - N/A   Clear
10:36 PM 3.2 °F -12.2 °F -0.4 °F 85% 29.49 in 10.0 mi South 10.4 mph - N/A   Clear
10:56 PM 1.4 °F -13.5 °F -2.2 °F 85% 29.50 in 10.0 mi South 9.2 mph - N/A   Clear
11:16 PM 1.4 °F -11.3 °F -2.2 °F 85% 29.51 in 10.0 mi SSE 6.9 mph - N/A   Clear
11:36 PM 1.4 °F -11.3 °F -2.2 °F 85% 29.52 in 10.0 mi SSE 6.9 mph - N/A   Clear
11:56 PM 3.2 °F -4.2 °F -0.4 °F 85% 29.53 in 10.0 mi SSE 3.5 mph - N/A   Clear